Regional Weather Roundup
Issued by NWS

Home | Current Version | Previous Version | Graphics & Text | Print | Product List | Glossary Off
Versions: 1 2 3 4 5 6 7 8 9 10 11 12 13 14 15 16 17 18 19 20 21 22 23 24 25 26 27 28 29 30 31 32 33 34 35 36 37 38 39 40 41 42 43 44 45 46 47 48 49 50

578
ASUS43 KMKX 261611
RWRWI

WISCONSIN REGIONAL WEATHER ROUNDUP
NATIONAL WEATHER SERVICE MILWAUKEE/SULLIVAN WI
1100 AM CDT TUE JUL 26 2016

NOTE: "FAIR" INDICATES FEW OR NO CLOUDS BELOW 12,000 FEET WITH NO
SIGNIFICANT WEATHER AND/OR OBSTRUCTIONS TO VISIBILITY.

WIZ001-002-006>008-014>016-023>028-261700-
NORTHWEST WISCONSIN

CITY           SKY/WX    TMP DP  RH WIND       PRES   REMARKS
SUPERIOR ARPT  CLOUDY    79  69  71 W8        29.96S HX  81
ASHLAND        SUNNY     84  66  54 SW18G24   29.97F HX  86
HAYWARD        SUNNY     81  65  58 SW9G18    30.02F HX  83
SIREN          MOSUNNY   82  66  57 W13G18    30.02F HX  85
CUMBERLAND     SUNNY     79  64  61 SW10      30.05S HX  81
RICE LAKE      MOSUNNY   80  69  70 S7        30.06S HX  82
CHETEK         PTSUNNY   80  69  68 MISG      30.05F HX  83
LADYSMITH      MOSUNNY   80  67  65 SW9       30.07F HX  82
EAU CLAIRE     PTSUNNY   83  67  58 SW13      30.06R HX  85
MENOMONIE      PTSUNNY   84  68  57 SW8       30.06S HX  87
NEW RICHMOND   MOSUNNY   84  65  53 W13       30.05F HX  85
OSCEOLA        PTSUNNY   81  68  64 SW8       30.06S HX  84
$$

WIZ003>005-009-010-017-018-261700-
NORTH CENTRAL WISCONSIN

CITY           SKY/WX    TMP DP  RH WIND       PRES   REMARKS
MANITOWISH WTR MOSUNNY   80  66  63 SW9G20    30.04S HX  82
ARBOR VITAE    SUNNY     81  67  62 W9        30.05F HX  83
WOODRUFF       SUNNY     81  67  62 W9        30.05F HX  83
RHINELANDER    SUNNY     82  66  58 W8        30.07F HX  84
EAGLE RIVER    SUNNY     80  64  59 SW7       30.05F HX  81
LAND O LAKES   SUNNY     81  65  58 W7        30.05F HX  83
PHILLIPS       CLOUDY    79  68  69 W9        30.05S HX  81
TOMAHAWK       SUNNY     80  64  58 SW7       30.07S HX  82
MEDFORD        MOSUNNY   78  68  70 SW7       30.08S HX  80
MERRILL        SUNNY     82  67  62 NW7       30.07S HX  84
$$

WIZ029-030-035-036-043>047-261700-
CENTRAL WISCONSIN

CITY           SKY/WX    TMP DP  RH WIND       PRES   REMARKS
WAUSAU         SUNNY     82  64  54 W9        30.05F HX  83
MOSINEE        SUNNY     82  66  57 SW7       30.08S HX  85
MARSHFIELD     SUNNY     82  66  58 SW7       30.08R HX  84
STEVENS POINT  SUNNY     80  65  58 W7        30.08R HX  82
WAUPACA        SUNNY     85  62  44 W3        30.06S HX  85
WAUTOMA        SUNNY     82  66  58 VRB3      30.07S HX  84
WISC RAPIDS    SUNNY     84  64  50 SW9       30.09R HX  85
CAMP DOUGLAS   MOSUNNY   82  66  57 SW5       30.08S HX  85
$$

WIZ011>013-019>022-031-037>040-048>050-261700-
NORTHEAST WISCONSIN

CITY           SKY/WX    TMP DP  RH WIND       PRES   REMARKS
ANTIGO         SUNNY     80  66  61 CALM      30.08S HX  82
SHAWANO        SUNNY     84  68  57 W5        30.06R HX  87
OCONTO         SUNNY     82  68  63 SW3       30.02S HX  85
STURGEON BAY   SUNNY     80  66  62 W6        30.04S HX  82
GREEN BAY      SUNNY     82  71  69 SW7       30.05S HX  86
MANITOWOC      SUNNY     83  64  52 VRB3      30.05S HX  84
APPLETON       SUNNY     81  64  57 W6        30.05S HX  82
CLINTONVILLE   SUNNY     82  63  51 NW6       30.05S HX  83
OSHKOSH        SUNNY     82  67  60 VRB5      30.06S HX  84
$$

WIZ032>034-041-042-053>061-261700-
SOUTHWEST WISCONSIN

CITY           SKY/WX    TMP DP  RH WIND       PRES   REMARKS
LA CROSSE      SUNNY     82  68  62 CALM      30.07S HX  85
SPARTA         SUNNY     82  67  62 SW5       30.09R HX  84
VIROQUA        SUNNY     81  62  52 CALM      30.11S HX  82
BOSCOBEL       SUNNY     83  65  54 CALM      30.09S HX  85
PRAIRIE DU CHI SUNNY     81  63  54 CALM      30.09S HX  82
PLATTEVILLE    SUNNY     80  64  58 NE3       30.11R HX  82
$$

WIZ056-057-062-063-064-067-068-261700-
SOUTH CENTRAL WISCONSIN

CITY           SKY/WX    TMP DP  RH WIND       PRES   REMARKS
REEDSBURG      SUNNY     81  65  58 S5        30.08S HX  82
BARABOO/DELLS  SUNNY     80  61  52 NW3       30.09S HX  81
LONE ROCK      SUNNY     81  65  58 SW5       30.09S HX  83
MINERAL POINT  MOSUNNY   82  63  51 CALM      30.11R HX  83
MADISON        MOSUNNY   83  62  49 NE3       30.08S HX  84
MIDDLETON      SUNNY     82  60  47 CALM      30.09S HX  83
WATERTOWN      SUNNY     81  64  56 CALM      30.07S HX  82
MONROE         SUNNY     79  61  53 CALM      30.10R HX  80
JANESVILLE     MOSUNNY   82  61  47 E7        30.08R HX  83
$$

WIZ051-052-058>065-066-070>072-261700-
SOUTHEAST WISCONSIN

CITY           SKY/WX    TMP DP  RH WIND       PRES   REMARKS
MILWAUKEE      MOSUNNY   83  60  45 E6        30.07S HX  83
WAUKESHA       SUNNY     81  59  47 E3        30.09S HX  81
MILWAUKEE/TIMM SUNNY     82  54  36 E6        30.08S HX  81
RACINE         SUNNY     83  61  47 E6        30.09S HX  83
BURLINGTON     SUNNY     82  62  49 SE5       30.08S HX  83
KENOSHA        MOSUNNY   83  64  52 CALM      30.08S HX  84
FOND DU LAC    SUNNY     83  64  52 CALM      30.07S HX  84
SHEBOYGAN      SUNNY     83  61  47 CALM      30.06S HX  83
WEST BEND      MOSUNNY   82  55  39 CALM      30.07S HX  82
JUNEAU         SUNNY     80  64  58 CALM      30.09S HX  81
$$

LSZ147-162-261700-
LAKE SUPERIOR

STATION/POSITION TIME  TEMP    WIND        PRES    WAVE
                       AIR SEA DIR/SP/G            HT/PER
                 (UTC) (F)     (DEG/KT/KT) (MB)    (FT/S)
W MID LAKE BUOY  1550   64 60  220/  6/  6 1013.7F   1
DEVILS ISLAND    1600   73     240/ 10/ 13 1013.8F
SAXON HARBOR     1540   82     200/  8/ 15 1014.2F
$$

LMZ867-665-643>646-261700-
LAKE MICHIGAN

STATION/POSITION TIME  TEMP    WIND        PRES    WAVE
                       AIR SEA DIR/SP/G            HT/PER
                 (UTC) (F)     (DEG/KT/KT) (MB)    (FT/S)
CHAMBERS ISLAND  1500   76     200/  5/  8 1016.6F
S GREEN BAY BUOY 1500   74 74  200/  8/ 10   N/A
N MID LAKE BUOY  1550   70 70  210/  8/  8 1015.6F   0
NORTHPORT PIER   1500   81     250/  2/  7 1016.3F
SISTER BAY       1521   80     290/  7/  7   N/A
ALGOMA LAKESHORE 1513          180/  5/  7   N/A
KEWAUNEE LAKESHO 1500   69     160/  4/  5 1016.7F
SHEBOYGAN LAKESH 1600   76     110/  4/  4 1017.7F
PORT WASHINGTON  1500   76     180/  3/  5 1018.6S
ATWATER BUOY     1600   70 56  160/  4/  4 1020.0R
MILWAUKEE LAKESH 1510   74      90/  5/  5   N/A
S MID LAKE BUOY  1550   74 75   CALM  /  2 1017.8R   0
KENOSHA   LAKESH 1600   70      20/  4/  5 1017.9S
$$

TC  - TEMPERATURE IN CELSIUS
VSB - VISIBILITY IN STATUTE MILES
WCI - WIND CHILL INDEX
HX  - HEAT INDEX





USA.gov is the U.S. government's official web portal to all federal, state and local government web resources and services.